Weather History for Gage, OK

Change the Weather History Date:

Wednesday, September 5, 2012

  Actual Average Record
Temperature  
Mean Temperature 81 °F -  
Max Temperature 97 °F 89 °F 101 °F (1970)
Min Temperature 66 °F 63 °F 45 °F (2011)
Cooling Degree Days 16    
Growing Degree Days 31 (Base 50)    
Moisture  
Dew Point 64 °F    
Average Humidity 67    
Maximum Humidity 100    
Minimum Humidity 25    
Precipitation  
Precipitation 0.38 in - - ()
Sea Level Pressure  
Sea Level Pressure 29.89 in    
Wind  
Wind Speed 8 mph (ESE)    
Max Wind Speed 21 mph    
Max Gust Speed 28 mph    
Visibility 9 miles    
Events Rain , Thunderstorm    
Averages and records for this station are not official NWS values.
T = Trace of Precipitation, MM = Missing Value Source: NWS Daily Summary

Daily Weather History Graph

Daily Weather History Graph

Search for Another Location

Airport:

Trip Planner

Search our weather history database for the weather conditions in past years. The results will help you decide how hot, cold, wet, or windy it might be!

Date:

Astronomy

Sep. 05, 2012 Rise Set
Actual Time 7:14 AM CDT 8:00 PM CDT
Civil Twilight 6:48 AM CDT 8:26 PM CDT
Nautical Twilight 6:17 AM CDT 8:57 PM CDT
Astronomical Twilight 5:45 AM CDT 9:28 PM CDT
Moon 10:42 PM CDT (9/5) 12:08 PM CDT (9/5)
Length of Visible Light 13h 38m
Length of Day
12h 46m
Waning Gibbous, 76% of the Moon is Illuminated
Sep 5
Waning Gibbous
Sep 8
Last Quarter
Sep 15
New
Sep 22
First Quarter
Sep 29
Full

Hourly Weather History & Observations

Time (CDT) Temp. Heat Index Dew Point Humidity Pressure Visibility Wind Dir Wind Speed Gust Speed Precip Events Conditions
12:53 AM 75.0 °F - 64.9 °F 71% 29.79 in 10.0 mi SSW 10.4 mph - N/A   Clear
1:53 AM 73.0 °F - 66.9 °F 81% 29.80 in 10.0 mi NE 6.9 mph - N/A   Scattered Clouds
2:53 AM 73.0 °F - 66.0 °F 79% 29.80 in 10.0 mi SSW 5.8 mph - N/A   Clear
3:53 AM 71.1 °F - 66.0 °F 84% 29.81 in 10.0 mi East 3.5 mph - N/A   Clear
4:53 AM 70.0 °F - 64.0 °F 81% 29.81 in 10.0 mi ENE 6.9 mph - N/A   Clear
5:53 AM 66.9 °F - 64.9 °F 93% 29.84 in 10.0 mi Calm Calm - N/A   Clear
6:53 AM 66.9 °F - 64.9 °F 93% 29.91 in 10.0 mi ESE 5.8 mph - N/A   Clear
7:53 AM 66.9 °F - 66.0 °F 97% 29.93 in 10.0 mi Calm Calm - N/A   Clear
8:53 AM 72.0 °F - 66.0 °F 81% 29.93 in 10.0 mi Calm Calm - N/A   Clear
9:53 AM 79.0 °F - 66.0 °F 64% 29.95 in 10.0 mi SW 3.5 mph - N/A   Clear
10:53 AM 86.0 °F 87.3 °F 64.0 °F 48% 29.88 in 10.0 mi West 5.8 mph - N/A   Clear
11:53 AM 87.1 °F 87.5 °F 62.1 °F 43% 29.88 in 10.0 mi West 4.6 mph - N/A   Clear
12:53 PM 89.1 °F 89.3 °F 62.1 °F 40% 29.87 in 10.0 mi Variable 6.9 mph - N/A   Clear
2:53 PM 93.9 °F 93.2 °F 59.0 °F 31% 29.82 in 10.0 mi ESE 5.8 mph - N/A   Clear
3:53 PM 95.0 °F 94.0 °F 57.9 °F 29% 29.81 in 10.0 mi Variable 4.6 mph - N/A   Clear
4:53 PM 95.0 °F 93.7 °F 57.0 °F 28% 29.78 in 10.0 mi ENE 10.4 mph - N/A   Clear
5:53 PM 96.1 °F 94.1 °F 55.0 °F 25% 29.79 in 10.0 mi NNE 9.2 mph - N/A   Clear
6:49 PM 84.2 °F 83.8 °F 59.0 °F 42% 29.90 in 10.0 mi North 18.4 mph 26.5 mph N/A Thunderstorm Scattered Clouds
6:53 PM 84.0 °F 83.5 °F 57.9 °F 41% 29.82 in 10.0 mi NNE 17.3 mph - N/A Thunderstorm Scattered Clouds
7:19 PM 80.6 °F 80.5 °F 55.4 °F 42% 29.89 in 10.0 mi NNE 16.1 mph - 0.00 in Rain Light Rain
7:53 PM 80.1 °F 80.4 °F 57.0 °F 45% 29.86 in 10.0 mi East 5.8 mph - 0.00 in   Partly Cloudy
8:53 PM 77.0 °F - 64.0 °F 64% 29.91 in 10.0 mi South 17.3 mph 27.6 mph N/A   Overcast
9:08 PM 73.4 °F - 66.2 °F 78% 30.01 in 10.0 mi South 16.1 mph 27.6 mph 0.00 in Rain , Thunderstorm Light Thunderstorms and Rain
9:33 PM 69.8 °F - 69.8 °F 100% 30.02 in 1.8 mi ENE 6.9 mph 16.1 mph 0.33 in Rain , Thunderstorm Heavy Thunderstorms and Rain
9:41 PM 69.8 °F - 69.8 °F 100% 30.03 in 3.0 mi Variable 4.6 mph - 0.36 in Rain , Thunderstorm Heavy Thunderstorms and Rain
9:47 PM 71.6 °F - 68.0 °F 88% 30.03 in 7.0 mi Variable 3.5 mph - 0.36 in Rain , Thunderstorm Light Rain
9:48 PM 71.1 °F - 68.0 °F 90% 29.96 in 8.0 mi Variable 3.5 mph - 0.36 in Rain , Thunderstorm Light Rain
10:27 PM 71.6 °F - 68.0 °F 88% 29.99 in 7.0 mi SE 20.7 mph 25.3 mph 0.02 in Rain Rain
10:53 PM 71.1 °F - 66.9 °F 87% 29.91 in 10.0 mi SSE 12.7 mph - 0.02 in Rain Light Rain
11:53 PM 70.0 °F - 66.0 °F 87% 29.94 in 10.0 mi SE 6.9 mph - 0.00 in   Clear